[Iaude] MPEC L13: 2024 KW1 [a=1.56,e=0.32,i=0.8,H=25.3]
    mpec at cfa.harvard.edu 
    mpec at cfa.harvard.edu
       
    Sat Jun  1 19:47:49 EDT 2024
    
    
  
M.P.E.C. 2024-L13                                  Issued 2024 June 1, 23:46 UT
     The Minor Planet Electronic Circulars contain information on unusual
         minor planets, routine data on comets and natural satellites,
         and occasional editorial announcements.  They are published
    on behalf of Division F of the International Astronomical Union by the
          Minor Planet Center, Smithsonian Astrophysical Observatory,
                          Cambridge, MA 02138, U.S.A.
			  
             Prepared using the Tamkin Foundation Computer Network
                              MPC at CFA.HARVARD.EDU
            URL https://www.minorplanetcenter.net/    ISSN 1523-6714
                                    2024 KW1                                    
Observations:
     K24K01W* C2024 05 31.32457514 35 40.422-03 44 16.62         20.93wXEL013F51
     K24K01W  C2024 05 31.33730814 35 43.581-03 44 29.45         21.49wXEL013F51
     K24K01W  C2024 05 31.35002414 35 46.700-03 44 42.38         21.09wXEL013F51
     K24K01W  C2024 05 31.36274114 35 49.844-03 44 55.14         20.92wXEL013F51
     K24K01W KC2024 06 01.15781714 39 56.632-03 59 06.65         20.53GVEL013I52
     K24K01W KC2024 06 01.15902214 39 56.920-03 59 08.20         21.10GVEL013I52
     K24K01W KC2024 06 01.16023714 39 57.179-03 59 09.24         20.65GVEL013I52
     K24K01W KC2024 06 01.16144814 39 57.550-03 59 10.86         20.55GVEL013I52
     K24K01W 3C2024 06 01.41425814 41 11.041-04 03 20.31         20.70GVEL013T14
     K24K01W 3C2024 06 01.41523414 41 11.304-04 03 21.36         20.78GVEL013T14
     K24K01W 3C2024 06 01.41621814 41 11.568-04 03 22.39         20.79GVEL013T14
     K24K01W KB2024 06 01.95863614 44 08.70 -04 14 18.0          20.0 GXEL013I93
     K24K01W KB2024 06 01.96559514 44 10.73 -04 14 25.8          20.1 GXEL013I93
     K24K01W KB2024 06 01.97227514 44 12.70 -04 14 33.8          20.6 GXEL013I93
Observer details:
F51 Pan-STARRS 1, Haleakala.  Observers J. Herman, T. Lowe, P. Minguez, A.
    Schultz, I. Smith.  Measurers K. Chambers, T. de Boer, J. Fairlamb, H.
    Gao, M. Huber, C.-C. Lin, E. Magnier, Y. Ramanjooloo, R. Wainscoat, R.
    Weryk.  1.8-m Ritchey-Chretien + CCD.
I52 Steward Observatory, Mt. Lemmon Station.  Observer K. W. Wierzchos.
    Measurers T. Beuden, V. F. Carvajal, D. Fay, J. B. Fazekas, D. C. Fuls, A.
    R. Gibbs, A. D. Grauer, H. Groeller, J. K. Hogan, R. A. Kowalski, S. M.
    Larson, G. J. Leonard, D. Rankin, R. L. Seaman, F. C. Shelly, K. W.
    Wierzchos.  1.0-m prime focus + CCD.
I93 St Pardon de Conques.  Observer F. Losse.  0.40-m f/3.7 reflector + CMO.
T14 Canada-France-Hawaii Telescope, Maunakea.  Observers R. Wainscoat, L.
    Wells, T. Burdullis.  Measurers R. Weryk, R. Wainscoat.  3.6-m f/4.1
    reflector + CCD.
Orbital elements:
2024 KW1                                                 Earth MOID = 0.0493 AU
Epoch 2024 Mar. 31.0 TT = JDT 2460400.5                 MPC                     
M 322.84345              (2000.0)            P               Q                  
n   0.50346350     Peri.  135.90273     -0.15715459     +0.98750493             
a   1.5649149      Node   125.05213     -0.90998554     -0.14020189             
e   0.3201915      Incl.    0.81762     -0.38370398     -0.07195453             
P   1.96           H   25.37          G   0.15           U   8                  
Residuals in seconds of arc
240531 F51  0.1-  0.0     240601 I52  0.2+  0.0     240601 T14  0.0   0.0
240531 F51  0.2+  0.0     240601 I52  0.9-  0.3+    240601 I93  0.2-  0.4+
240531 F51  0.1-  0.1-    240601 I52  0.2-  0.0     240601 I93  0.1+  0.5+
240531 F51  0.0   0.0     240601 T14  0.0   0.0     240601 I93  0.6+  0.1+
240601 I52  0.7+  0.3+    240601 T14  0.0   0.0
Ephemeris:
2024 KW1                 a,e,i = 1.56, 0.32, 1                   q = 1.0638
Date    TT    R. A. (2000) Decl.     Delta      r    Elong.  Phase     V
2024 05 02    13 34 54.2 -02 21 59   0.1316  1.1323   159.9    17.8    22.2
...
2024 05 17    13 49 40.7 -01 42 21   0.09448 1.0931   148.6    28.8    21.7
...
2024 05 25    14 09 47.6 -02 23 14   0.07822 1.0784   145.8    31.9    21.4
...
2024 05 31    14 34 03.2 -03 38 00   0.06762 1.0706   146.0    32.0    21.0
2024 06 01    14 39 04.1 -03 54 59   0.06603 1.0696   146.3    31.7    21.0
2024 06 02    14 44 23.7 -04 13 23   0.06448 1.0686   146.7    31.4    20.9
...
2024 06 08    15 23 34.6 -06 34 52   0.05662 1.0647   150.7    27.9    20.5
...
2024 06 16    16 35 24.4 -10 48 10   0.05114 1.0642   160.5    18.6    20.0
...
2024 07 01    18 58 25.8 -16 37 21   0.06119 1.0773   172.3     7.3    20.0
A. U. Tomatic                (C) Copyright 2024 MPC           M.P.E.C. 2024-L13
    
    
More information about the Iaude
mailing list